This demonstration page uses our WeatherBlox Daily Observations layout. Learn more.

Left ArrowRight Arrow

34.16533, -84.80231

Hourly Observations for June 12, 2019

Temp ( °F °C ) Dew Point ( °F °C ) Humidity (%) Winds ( mph kmh ) Pressure ( in mb ) Visibility ( mi km ) Precip ( " mm )
12:53 am 00:53 Cloudy with Light Rain 67 19.4 62 16.7 84 84 ESE 9 15 30.00 1016 6 10 0.02 0.51
1:53 am 01:53 Cloudy with Rain 65 18.3 60 15.6 84 84 ESE 10 17 29.99 1016 5 8 0.06 1.52
2:53 am 02:53 Cloudy with Heavy Rain 63 17.2 61 16.1 93 93 E 3 6 29.99 1016 3 5 0.08 2.03
3:53 am 03:53 Cloudy with Light Rain 63 17.2 62 16.7 97 97 Calm 29.97 1015 8 13 0.08 2.03
4:53 am 04:53 Cloudy 64 17.8 63 17.2 96 96 Calm 29.96 1015 9 14 0.00 0.03
5:53 am 05:53 Mostly Cloudy 64 17.8 63 17.2 96 96 Calm 29.96 1014 10 16 0.00 0.00
6:53 am 06:53 Mostly Cloudy 64 17.8 62 16.7 93 93 Calm 29.96 1015 10 16 0.00 0.00
7:21 am 07:21 Cloudy 65 18.3 61 16.1 87 87 Calm 29.99 1015 10 16 0.00 0.00
7:53 am 07:53 Cloudy 66 18.9 61 16.1 84 84 ESE 3 6 29.97 1015 10 16 0.00 0.00
8:53 am 08:53 Cloudy 67 19.4 61 16.1 81 81 E 6 9 29.98 1015 10 16 0.00 0.00
9:34 am 09:34 Mostly Cloudy 69 20.6 60 15.6 73 73 E 8 13 29.99 1016 10 16 0.00 0.00
9:53 am 09:53 Mostly Sunny 69 20.6 60 15.6 73 73 E 8 13 29.97 1015 10 16 0.00 0.00
10:53 am 10:53 Partly Cloudy 72 22.2 60 15.6 66 66 E 14 22 29.96 1014 10 16 0.00 0.00
11:53 am 11:53 Mostly Sunny 74 23.3 61 16.1 64 64 E 10 17 29.96 1015 10 16 0.00 0.00
12:53 pm 12:53 Cloudy 73 22.8 60 15.6 64 64 E 8 13 29.97 1015 10 16 0.00 0.00
1:53 pm 13:53 Partly Cloudy 76 24.4 62 16.7 62 62 ESE 8 13 29.94 1014 10 16 0.00 0.00
3:53 pm 15:53 Cloudy 74 23.3 63 17.2 69 69 ESE 9 15 29.90 1013 10 16 0.00 0.00
4:28 pm 16:28 Cloudy 75 23.9 63 17.2 66 66 SE 10 17 29.89 1012 10 16 0.00 0.00
4:53 pm 16:53 Cloudy 74 23.3 63 17.2 69 69 VRB 6 9 29.89 1012 10 16 0.00 0.00
5:53 pm 17:53 Cloudy 74 23.3 63 17.2 69 69 SE 10 17 29.88 1012 10 16 0.00 0.00
6:53 pm 18:53 Cloudy 72 22.2 63 17.2 73 73 ESE 8 13 29.88 1012 10 16 0.00 0.00
7:53 pm 19:53 Mostly Cloudy 71 21.7 62 16.7 73 73 VRB 7 11 29.88 1012 10 16 0.00 0.00
8:53 pm 20:53 Cloudy 70 21.1 62 16.7 76 76 SE 3 6 29.89 1012 10 16 0.00 0.00
9:36 pm 21:36 Cloudy 69 20.6 62 16.7 78 78 SE 5 7 29.91 1013 10 16 0.00 0.00
9:53 pm 21:53 Mostly Cloudy 69 20.6 62 16.7 78 78 SE 5 7 29.90 1013 10 16 0.00 0.00
10:53 pm 22:53 Cloudy with Light Rain 69 20.6 62 16.7 78 78 SE 6 9 29.91 1013 10 16 0.00 0.03
11:01 pm 23:01 Cloudy with Light Rain 68 20 62 16.7 81 81 SSE 7 11 29.93 1014 10 16 0.00 0.03
11:13 pm 23:13 Cloudy with Rain 67 19.4 63 17.2 87 87 ESE 5 7 29.93 1014 7 11 0.01 0.25
11:43 pm 23:43 Cloudy 67 19.4 64 17.8 91 91 Calm 29.93 1014 10 16 0.03 0.76
11:53 pm 23:53 Cloudy 66 18.9 65 18.3 96 96 Calm 29.92 1013 10 16 0.03 0.76

Powered by AerisWeather